Location: La Chapelle
(48.3135°N, 1.3085°W)
Time: 01:15:42
(UTC+00:00)

Cosmos 1933 Rocket - Pass Details

Date: 03 March 2021
Orbit: 607 x 629 km, 82.5° (Epoch: 12 April)

Event Time Altitude Azimuth Distance (km) Brightness Sun altitude
Rises 18:56:26 0° 174° (S) 2,860 6.9 -11.4°
Reaches altitude 10° 18:58:41 10° 169° (S) 1,963 6.0 -11.8°
Maximum altitude 19:02:53 50° 94° (E) 783 3.7 -12.5°
Drops below altitude 10° 19:07:09 10° 19° (NNE) 1,992 6.0 -13.2°
Sets 19:09:26 0° 14° (NNE) 2,907 6.9 -13.6°
